SCP
0 0 0 0 0 0 0 0 0 0 2 8 1 1 1 1 1 1 1 1 1 1 2 1 1 1 0 0 1 1 2 1 2 2 2 2 4 4 2 3 3 1 1
0 0 0 0 0 0 0 0 0 0 0 0 6 3 2 3 2 2 1 1 0 1 1 1 1 1 1 1 2 2 2 2 2 3 2 1 3 7 4 2 2 1 1
0 0 0 0 0 0 0 0 0 0 0 0 1 4 8 2 5 3 3 6 0 -0 1 1 1 1 1 1 2 7 4 3 3 4 3 2 2 2 5 4 1 2 3
0 0 0 0 0 0 0 0 0 0 0 0 1 2 1 2 1 4 10 10 3 1 0 2 1 0 1 1 4 5 5 7 4 4 4 2 2 3 2 4 2 1 2
0 0 0 0 0 0 0 0 0 0 0 1 1 0 0 0 0 1 6 8 4 5 3 1 3 0 -0 1 3 7 7 5 4 3 5 3 2 4 4 2 3 2 1
0 0 0 0 0 0 0 0 0 0 0 0 0 1 1 1 1 1 2 2 3 5 6 5 4 2 3 1 6 7 10 6 8 3 4 3 3 3 4 1 0 2 2
0 0 0 0 0 0 0 0 0 0 0 0 0 0 1 1 1 2 1 1 1 3 6 5 7 6 4 4 5 8 11 13 7 5 3 3 3 3 2 1 2 2 2
0 0 0 0 0 0 0 0 0 0 0 0 0 0 0 0 0 1 0 1 1 1 3 9 6 6 5 5 7 10 12 13 8 6 4 2 3 4 3 2 2 1 1
0 0 0 0 0 0 0 0 0 0 0 0 0 0 0 0 0 2 3 1 2 1 1 7 6 5 5 8 9 10 10 9 7 4 4 2 4 7 2 3 1 1 1
0 0 0 0 0 0 0 0 0 0 0 0 0 0 0 0 0 1 2 3 3 4 5 4 5 7 7 9 11 9 10 7 5 3 3 3 3 5 2 3 1 1 1
0 0 0 0 0 0 0 0 0 0 0 0 0 0 0 0 0 1 1 2 2 2 2 3 3 2 4 5 7 8 6 6 5 3 3 2 4 2 1 2 1 1 1
0 0 0 0 0 0 0 0 0 0 0 0 0 0 0 0 0 1 1 2 2 2 2 1 1 2 2 5 5 4 4 4 3 2 3 3 3 2 3 2 2 2 1
0 0 0 0 0 0 0 0 0 0 0 0 0 0 0 0 0 0 1 0 2 2 2 1 1 1 2 3 3 2 3 4 2 2 2 3 2 2 2 1 1 1 1
0 0 0 0 0 0 0 0 0 0 0 0 0 0 0 0 0 0 0 1 1 2 2 1 1 1 1 2 2 2 3 3 3 4 3 1 1 2 1 1 2 2 1
0 0 0 0 0 0 0 0 0 0 0 0 0 0 0 0 0 0 0 0 0 2 1 1 1 1 2 2 2 2 3 3 4 4 2 2 2 1 1 1 2 1 1
0 0 0 0 0 0 0 0 0 0 0 0 0 0 0 0 0 0 0 1 0 2 1 1 1 2 2 1 2 2 4 3 3 3 2 2 1 0 0 0 0 1 1
0 0 0 0 0 0 0 0 0 0 0 0 0 0 0 0 0 0 0 0 1 2 0 2 2 2 2 1 2 3 3 3 3 3 2 1 1 1 1 0 0 0 0
0 0 0 0 0 0 0 0 0 0 0 0 0 0 0 0 0 0 0 0 1 2 1 2 2 3 5 0 2 3 4 3 2 2 1 1 1 0 0 0 0 0 0
0 0 0 0 0 0 0 0 0 0 0 0 0 0 0 0 0 0 0 0 2 2 2 2 2 3 2 0 1 1 3 2 1 1 0 0 1 0 0 0 0 0 1
0 0 0 0 0 0 0 0 0 0 0 0 0 0 0 0 0 0 0 0 2 2 2 2 3 3 2 0 1 1 2 2 1 1 0 0 0 0 0 0 1 0 0
0 0 0 0 0 0 0 -0 -0 -0 0 0 0 0 0 0 0 0 0 0 2 2 2 2 3 4 1 0 0 0 1 1 1 1 0 0 0 0 0 0 1 0 0
0 0 0 -0 0 0 0 0 0 0 0 0 0 0 0 0 0 0 -0 1 1 2 2 3 4 2 1 0 0 0 0 0 0 0 0 0 0 0 0 0 0 0 0
0 0 0 0 -0 0 0 0 0 0 0 0 -0 0 0 0 0 -0 0 1 1 2 3 3 2 1 1 0 0 0 0 0 0 0 0 0 0 0 0 0 0 0 0
0 -0 -0 -0 -0 -0 0 0 0 -0 0 -0 0 0 0 0 -0 0 1 2 2 2 3 2 1 1 1 0 0 0 0 0 0 0 0 0 0 0 0 0 0 0 0
0 0 0 0 -0 -0 -0 0 -0 -0 0 0 0 0 0 -0 0 1 1 1 1 2 2 1 2 1 1 0 0 0 0 0 0 0 0 0 0 0 0 0 0 0 -0
0 0 0 -0 -0 -0 -0 -0 0 0 -0 0 0 0 -0 0 0 0 0 0 0 0 0 0 1 0 0 0 0 0 0 0 0 0 0 0 0 0 0 0 -0 -0 0
Wind_Speed_500mb
32 30 29 15 11 16 23 20 13 18 52 77 71 43 51 68 74 76 69 66 61 69 80 74 76 71 68 47 34 43 40 45 47 30 36 38 48 49 41 39 41 38 33
41 38 29 25 17 20 26 22 26 16 24 38 75 73 44 39 45 65 77 68 61 68 79 84 80 85 75 71 58 54 40 43 31 31 29 36 37 45 45 32 36 39 36
33 36 36 30 20 16 23 28 35 38 26 31 36 59 72 62 46 56 78 76 85 65 69 75 73 69 82 79 69 68 58 46 33 38 33 24 34 29 22 28 26 36 38
35 33 29 27 19 12 11 11 33 45 36 39 36 35 37 46 54 58 50 59 85 96 55 43 38 68 80 76 58 63 57 55 44 37 48 53 47 32 30 18 24 30 34
22 29 25 22 17 11 8 3 15 18 23 27 41 39 34 36 40 44 37 46 60 67 100 89 96 86 93 77 64 66 63 46 42 44 40 34 36 40 30 40 27 25 26
22 18 15 17 15 14 11 9 9 11 19 23 26 32 42 47 41 30 35 46 49 54 68 70 70 86 97 84 78 66 61 55 54 50 42 42 35 34 30 33 39 37 27
20 22 18 19 19 16 15 11 10 15 17 17 20 24 33 41 44 49 54 49 50 53 54 60 66 86 90 76 66 62 61 61 58 59 46 44 45 38 32 34 33 20 25
23 11 17 17 20 23 18 16 13 14 16 18 22 24 31 31 34 40 43 45 46 50 53 61 71 75 73 59 64 54 58 60 54 57 51 43 42 37 35 38 33 33 33
14 20 22 19 21 23 23 21 21 19 19 23 25 23 27 31 39 47 50 47 51 58 56 49 60 66 62 64 56 57 61 53 53 51 46 44 37 42 32 38 32 34 38
24 31 35 32 28 26 28 30 30 30 28 27 27 28 29 32 38 42 48 53 58 61 54 57 65 68 62 60 63 60 58 56 53 43 42 41 35 37 35 38 30 31 31
35 37 38 36 36 34 35 35 35 34 33 32 30 32 34 35 37 42 45 50 57 64 66 62 55 51 48 60 66 64 55 56 52 42 46 39 36 33 31 39 31 32 28
29 35 36 35 36 36 39 41 43 42 41 39 38 39 39 41 44 42 43 45 53 56 55 53 56 59 54 63 69 67 50 50 45 47 42 39 35 42 40 37 32 32 30
32 32 33 36 37 36 38 42 43 42 43 43 44 45 46 49 52 52 45 48 46 52 51 51 55 64 64 66 67 59 52 49 44 44 40 38 38 41 45 38 30 30 29
28 32 34 37 36 39 41 43 43 43 44 46 49 50 51 52 57 58 55 48 49 50 54 56 55 58 61 61 57 53 51 50 46 45 40 35 39 45 41 31 34 29 28
39 39 39 41 42 46 48 51 51 50 49 51 53 54 57 58 56 58 58 53 54 50 56 54 54 61 62 62 60 56 56 50 46 43 39 39 41 40 31 30 33 33 33
42 41 44 52 56 60 56 57 59 61 58 60 64 62 58 57 61 61 62 58 56 50 60 60 62 63 64 62 63 60 55 49 47 40 39 38 41 40 45 43 37 38 40
53 55 59 62 61 58 59 66 74 75 75 75 74 68 63 61 61 58 59 62 62 55 66 67 66 67 70 64 68 66 50 45 42 42 39 35 29 41 39 39 41 41 35
56 57 61 64 70 76 80 79 81 86 83 81 77 71 65 63 61 60 61 63 63 61 66 71 71 68 70 66 71 70 41 40 40 40 35 31 29 30 28 28 37 38 36
60 67 69 74 80 74 68 79 84 79 80 82 76 70 63 62 60 62 63 70 64 63 70 75 71 69 71 72 65 59 40 38 36 31 29 29 32 28 35 31 34 32 36
76 77 76 79 81 80 72 74 76 83 80 72 72 64 60 60 62 59 65 70 62 67 72 76 72 71 74 67 64 57 37 41 34 31 37 37 30 36 31 33 32 31 39
81 78 73 82 69 69 70 78 80 76 69 67 67 64 59 63 63 63 69 56 65 66 71 70 68 74 64 71 64 55 42 37 34 31 29 26 39 32 23 34 30 31 30
80 77 82 78 72 79 72 77 75 67 63 62 63 60 60 63 60 64 68 56 70 68 67 66 69 61 73 73 72 58 40 38 35 29 27 31 24 28 26 30 32 28 29
78 76 70 69 74 79 74 73 66 66 67 59 54 56 52 57 58 63 55 59 69 73 79 79 71 71 82 77 71 60 48 43 27 30 26 27 23 27 23 17 21 32 24
65 63 62 68 78 73 67 64 56 54 52 50 64 57 61 56 53 49 65 75 82 87 72 70 71 83 79 72 63 59 50 41 40 36 36 26 34 29 24 21 22 25 28
69 69 69 72 78 72 62 58 49 52 54 53 56 58 54 42 49 57 67 77 76 82 84 79 85 83 71 60 51 52 40 37 31 39 35 37 31 31 33 25 21 21 22
69 70 71 70 78 74 57 47 41 44 50 55 46 41 35 34 67 70 67 72 69 66 62 69 60 51 48 54 50 44 40 43 37 37 42 39 34 34 34 32 23 19 17
Wind_Direction_500mb
238 217 219 240 233 198 223 242 249 231 216 224 242 239 247 237 249 244 249 250 258 260 255 254 254 256 253 245 240 241 256 255 269 261 265 267 263 274 259 254 264 257 254
232 235 230 238 242 249 240 243 255 243 227 218 225 243 247 249 252 243 245 250 268 268 251 255 250 254 252 243 241 258 246 258 259 248 263 269 271 252 256 256 249 254 246
216 232 227 233 231 237 249 229 247 254 245 239 223 224 242 244 232 239 232 236 262 271 267 253 259 251 254 250 239 244 253 247 244 241 233 265 257 294 247 242 243 245 253
219 214 213 220 225 221 248 262 240 242 261 245 247 245 236 240 247 241 228 236 233 258 263 249 276 268 254 249 238 243 256 261 229 235 247 252 256 282 278 244 245 236 240
216 209 209 210 228 228 216 215 263 277 259 249 251 242 257 252 251 244 243 238 241 248 260 256 264 271 262 246 230 245 250 242 240 228 236 256 256 260 265 275 259 234 243
194 208 219 223 226 227 218 226 233 237 259 260 261 260 253 249 250 251 260 249 257 253 248 242 231 238 241 239 236 237 248 258 243 232 225 236 242 248 246 262 271 252 247
214 236 247 257 253 255 247 255 249 279 281 268 253 252 258 259 257 249 240 242 247 248 254 263 244 234 239 232 231 242 237 244 237 237 237 233 239 247 254 257 252 247 263
233 246 270 270 274 269 264 267 276 283 283 277 277 270 259 260 263 264 262 250 251 253 247 255 252 233 233 244 240 231 232 237 234 236 242 226 237 239 244 254 251 257 258
251 268 275 279 285 282 280 281 280 288 296 297 289 279 271 271 264 250 244 250 254 249 238 240 249 252 238 235 238 227 237 231 231 240 240 239 229 242 238 244 234 241 260
281 277 275 277 278 275 273 274 277 282 289 292 290 288 281 277 276 275 269 260 253 246 245 250 254 247 236 235 236 232 227 226 231 231 233 229 220 233 240 241 232 237 258
285 284 282 278 273 272 273 274 273 274 277 282 285 282 277 276 276 273 270 266 265 262 259 253 251 256 240 228 230 224 219 224 225 225 225 222 217 221 228 233 219 235 237
285 282 282 279 277 272 272 274 275 272 274 276 280 282 280 278 276 279 275 270 273 265 263 257 246 235 229 225 226 225 208 216 214 215 215 223 221 217 217 216 224 237 235
279 276 282 285 279 277 280 277 274 273 277 280 277 276 277 280 277 275 278 277 268 263 255 246 243 231 231 224 225 216 203 212 214 215 212 216 217 220 222 205 224 230 235
271 275 278 282 284 287 284 279 277 275 275 276 280 279 275 274 277 277 275 274 268 260 254 245 238 234 226 216 212 206 202 210 212 212 215 213 218 217 215 210 219 221 231
268 264 265 272 278 283 287 285 279 278 276 277 276 274 276 272 272 273 272 273 272 254 252 242 237 226 216 209 206 203 202 205 205 207 209 212 213 217 212 215 221 223 228
280 278 280 283 284 284 282 280 282 282 280 279 278 277 271 265 266 268 266 269 268 249 246 235 228 216 209 209 208 199 198 200 202 207 207 207 212 207 218 220 217 220 218
292 290 287 284 285 287 283 278 279 279 276 276 276 273 268 264 260 262 262 262 266 242 239 229 221 211 207 208 207 197 195 195 201 203 198 196 208 225 223 227 228 228 231
287 294 294 293 288 284 279 278 280 279 273 272 271 266 263 260 258 259 259 257 262 238 230 222 213 206 201 206 207 197 189 188 196 197 195 196 213 231 208 221 226 231 237
297 289 285 286 286 284 283 282 280 273 270 267 264 261 258 255 256 256 257 256 253 231 222 214 208 201 200 202 202 189 186 183 189 185 198 207 208 219 214 215 227 222 225
288 285 289 292 289 287 283 276 273 273 266 262 259 256 253 253 255 257 256 258 234 223 215 208 201 195 204 192 188 171 178 175 179 188 205 208 210 224 230 212 227 227 231
286 290 296 293 282 284 280 281 277 270 265 261 259 255 255 250 251 253 258 239 223 213 207 199 192 197 198 181 172 164 180 183 189 197 211 219 221 227 226 207 215 222 217
292 291 291 284 283 284 284 280 274 269 263 259 257 253 251 252 256 257 246 237 220 210 200 187 184 188 174 169 171 169 174 189 185 196 200 213 224 219 215 217 226 220 222
288 288 285 283 280 286 284 278 274 266 266 255 245 255 254 252 251 253 229 214 199 186 173 167 159 167 170 171 176 176 182 186 176 192 211 224 218 191 194 211 216 206 200
288 287 286 285 284 282 281 277 270 264 258 251 245 257 259 255 248 221 193 179 170 170 163 166 161 168 169 173 177 184 192 193 189 194 200 207 178 171 177 160 148 163 167
285 285 282 281 281 284 281 274 264 264 253 252 248 255 252 238 211 189 185 177 178 178 174 171 170 167 172 176 177 183 180 179 183 194 190 175 170 181 181 173 168 178 176
284 283 280 278 276 281 277 270 256 255 253 259 264 258 219 197 178 163 156 159 168 171 162 158 155 159 168 177 179 180 178 179 191 179 173 174 182 182 175 173 170 169 167
Wind_Speed_850mb
32 30 29 15 11 16 23 20 13 18 52 77 71 43 51 68 74 76 69 66 61 69 80 74 76 71 68 47 34 43 40 45 47 30 36 38 48 49 41 39 41 38 33
41 38 29 25 17 20 26 22 26 16 24 38 75 73 44 39 45 65 77 68 61 68 79 84 80 85 75 71 58 54 40 43 31 31 29 36 37 45 45 32 36 39 36
33 36 36 30 20 16 23 28 35 38 26 31 36 59 72 62 46 56 78 76 85 65 69 75 73 69 82 79 69 68 58 46 33 38 33 24 34 29 22 28 26 36 38
35 33 29 27 19 12 11 11 33 45 36 39 36 35 37 46 54 58 50 59 85 96 55 43 38 68 80 76 58 63 57 55 44 37 48 53 47 32 30 18 24 30 34
22 29 25 22 17 11 8 3 15 18 23 27 41 39 34 36 40 44 37 46 60 67 100 89 96 86 93 77 64 66 63 46 42 44 40 34 36 40 30 40 27 25 26
22 18 15 17 15 14 11 9 9 11 19 23 26 32 42 47 41 30 35 46 49 54 68 70 70 86 97 84 78 66 61 55 54 50 42 42 35 34 30 33 39 37 27
20 22 18 19 19 16 15 11 10 15 17 17 20 24 33 41 44 49 54 49 50 53 54 60 66 86 90 76 66 62 61 61 58 59 46 44 45 38 32 34 33 20 25
23 11 17 17 20 23 18 16 13 14 16 18 22 24 31 31 34 40 43 45 46 50 53 61 71 75 73 59 64 54 58 60 54 57 51 43 42 37 35 38 33 33 33
14 20 22 19 21 23 23 21 21 19 19 23 25 23 27 31 39 47 50 47 51 58 56 49 60 66 62 64 56 57 61 53 53 51 46 44 37 42 32 38 32 34 38
24 31 35 32 28 26 28 30 30 30 28 27 27 28 29 32 38 42 48 53 58 61 54 57 65 68 62 60 63 60 58 56 53 43 42 41 35 37 35 38 30 31 31
35 37 38 36 36 34 35 35 35 34 33 32 30 32 34 35 37 42 45 50 57 64 66 62 55 51 48 60 66 64 55 56 52 42 46 39 36 33 31 39 31 32 28
29 35 36 35 36 36 39 41 43 42 41 39 38 39 39 41 44 42 43 45 53 56 55 53 56 59 54 63 69 67 50 50 45 47 42 39 35 42 40 37 32 32 30
32 32 33 36 37 36 38 42 43 42 43 43 44 45 46 49 52 52 45 48 46 52 51 51 55 64 64 66 67 59 52 49 44 44 40 38 38 41 45 38 30 30 29
28 32 34 37 36 39 41 43 43 43 44 46 49 50 51 52 57 58 55 48 49 50 54 56 55 58 61 61 57 53 51 50 46 45 40 35 39 45 41 31 34 29 28
39 39 39 41 42 46 48 51 51 50 49 51 53 54 57 58 56 58 58 53 54 50 56 54 54 61 62 62 60 56 56 50 46 43 39 39 41 40 31 30 33 33 33
42 41 44 52 56 60 56 57 59 61 58 60 64 62 58 57 61 61 62 58 56 50 60 60 62 63 64 62 63 60 55 49 47 40 39 38 41 40 45 43 37 38 40
53 55 59 62 61 58 59 66 74 75 75 75 74 68 63 61 61 58 59 62 62 55 66 67 66 67 70 64 68 66 50 45 42 42 39 35 29 41 39 39 41 41 35
56 57 61 64 70 76 80 79 81 86 83 81 77 71 65 63 61 60 61 63 63 61 66 71 71 68 70 66 71 70 41 40 40 40 35 31 29 30 28 28 37 38 36
60 67 69 74 80 74 68 79 84 79 80 82 76 70 63 62 60 62 63 70 64 63 70 75 71 69 71 72 65 59 40 38 36 31 29 29 32 28 35 31 34 32 36
76 77 76 79 81 80 72 74 76 83 80 72 72 64 60 60 62 59 65 70 62 67 72 76 72 71 74 67 64 57 37 41 34 31 37 37 30 36 31 33 32 31 39
81 78 73 82 69 69 70 78 80 76 69 67 67 64 59 63 63 63 69 56 65 66 71 70 68 74 64 71 64 55 42 37 34 31 29 26 39 32 23 34 30 31 30
80 77 82 78 72 79 72 77 75 67 63 62 63 60 60 63 60 64 68 56 70 68 67 66 69 61 73 73 72 58 40 38 35 29 27 31 24 28 26 30 32 28 29
78 76 70 69 74 79 74 73 66 66 67 59 54 56 52 57 58 63 55 59 69 73 79 79 71 71 82 77 71 60 48 43 27 30 26 27 23 27 23 17 21 32 24
65 63 62 68 78 73 67 64 56 54 52 50 64 57 61 56 53 49 65 75 82 87 72 70 71 83 79 72 63 59 50 41 40 36 36 26 34 29 24 21 22 25 28
69 69 69 72 78 72 62 58 49 52 54 53 56 58 54 42 49 57 67 77 76 82 84 79 85 83 71 60 51 52 40 37 31 39 35 37 31 31 33 25 21 21 22
69 70 71 70 78 74 57 47 41 44 50 55 46 41 35 34 67 70 67 72 69 66 62 69 60 51 48 54 50 44 40 43 37 37 42 39 34 34 34 32 23 19 17
Wind_Direction_850mb
238 217 219 240 233 198 223 242 249 231 216 224 242 239 247 237 249 244 249 250 258 260 255 254 254 256 253 245 240 241 256 255 269 261 265 267 263 274 259 254 264 257 254
232 235 230 238 242 249 240 243 255 243 227 218 225 243 247 249 252 243 245 250 268 268 251 255 250 254 252 243 241 258 246 258 259 248 263 269 271 252 256 256 249 254 246
216 232 227 233 231 237 249 229 247 254 245 239 223 224 242 244 232 239 232 236 262 271 267 253 259 251 254 250 239 244 253 247 244 241 233 265 257 294 247 242 243 245 253
219 214 213 220 225 221 248 262 240 242 261 245 247 245 236 240 247 241 228 236 233 258 263 249 276 268 254 249 238 243 256 261 229 235 247 252 256 282 278 244 245 236 240
216 209 209 210 228 228 216 215 263 277 259 249 251 242 257 252 251 244 243 238 241 248 260 256 264 271 262 246 230 245 250 242 240 228 236 256 256 260 265 275 259 234 243
194 208 219 223 226 227 218 226 233 237 259 260 261 260 253 249 250 251 260 249 257 253 248 242 231 238 241 239 236 237 248 258 243 232 225 236 242 248 246 262 271 252 247
214 236 247 257 253 255 247 255 249 279 281 268 253 252 258 259 257 249 240 242 247 248 254 263 244 234 239 232 231 242 237 244 237 237 237 233 239 247 254 257 252 247 263
233 246 270 270 274 269 264 267 276 283 283 277 277 270 259 260 263 264 262 250 251 253 247 255 252 233 233 244 240 231 232 237 234 236 242 226 237 239 244 254 251 257 258
251 268 275 279 285 282 280 281 280 288 296 297 289 279 271 271 264 250 244 250 254 249 238 240 249 252 238 235 238 227 237 231 231 240 240 239 229 242 238 244 234 241 260
281 277 275 277 278 275 273 274 277 282 289 292 290 288 281 277 276 275 269 260 253 246 245 250 254 247 236 235 236 232 227 226 231 231 233 229 220 233 240 241 232 237 258
285 284 282 278 273 272 273 274 273 274 277 282 285 282 277 276 276 273 270 266 265 262 259 253 251 256 240 228 230 224 219 224 225 225 225 222 217 221 228 233 219 235 237
285 282 282 279 277 272 272 274 275 272 274 276 280 282 280 278 276 279 275 270 273 265 263 257 246 235 229 225 226 225 208 216 214 215 215 223 221 217 217 216 224 237 235
279 276 282 285 279 277 280 277 274 273 277 280 277 276 277 280 277 275 278 277 268 263 255 246 243 231 231 224 225 216 203 212 214 215 212 216 217 220 222 205 224 230 235
271 275 278 282 284 287 284 279 277 275 275 276 280 279 275 274 277 277 275 274 268 260 254 245 238 234 226 216 212 206 202 210 212 212 215 213 218 217 215 210 219 221 231
268 264 265 272 278 283 287 285 279 278 276 277 276 274 276 272 272 273 272 273 272 254 252 242 237 226 216 209 206 203 202 205 205 207 209 212 213 217 212 215 221 223 228
280 278 280 283 284 284 282 280 282 282 280 279 278 277 271 265 266 268 266 269 268 249 246 235 228 216 209 209 208 199 198 200 202 207 207 207 212 207 218 220 217 220 218
292 290 287 284 285 287 283 278 279 279 276 276 276 273 268 264 260 262 262 262 266 242 239 229 221 211 207 208 207 197 195 195 201 203 198 196 208 225 223 227 228 228 231
287 294 294 293 288 284 279 278 280 279 273 272 271 266 263 260 258 259 259 257 262 238 230 222 213 206 201 206 207 197 189 188 196 197 195 196 213 231 208 221 226 231 237
297 289 285 286 286 284 283 282 280 273 270 267 264 261 258 255 256 256 257 256 253 231 222 214 208 201 200 202 202 189 186 183 189 185 198 207 208 219 214 215 227 222 225
288 285 289 292 289 287 283 276 273 273 266 262 259 256 253 253 255 257 256 258 234 223 215 208 201 195 204 192 188 171 178 175 179 188 205 208 210 224 230 212 227 227 231
286 290 296 293 282 284 280 281 277 270 265 261 259 255 255 250 251 253 258 239 223 213 207 199 192 197 198 181 172 164 180 183 189 197 211 219 221 227 226 207 215 222 217
292 291 291 284 283 284 284 280 274 269 263 259 257 253 251 252 256 257 246 237 220 210 200 187 184 188 174 169 171 169 174 189 185 196 200 213 224 219 215 217 226 220 222
288 288 285 283 280 286 284 278 274 266 266 255 245 255 254 252 251 253 229 214 199 186 173 167 159 167 170 171 176 176 182 186 176 192 211 224 218 191 194 211 216 206 200
288 287 286 285 284 282 281 277 270 264 258 251 245 257 259 255 248 221 193 179 170 170 163 166 161 168 169 173 177 184 192 193 189 194 200 207 178 171 177 160 148 163 167
285 285 282 281 281 284 281 274 264 264 253 252 248 255 252 238 211 189 185 177 178 178 174 171 170 167 172 176 177 183 180 179 183 194 190 175 170 181 181 173 168 178 176
284 283 280 278 276 281 277 270 256 255 253 259 264 258 219 197 178 163 156 159 168 171 162 158 155 159 168 177 179 180 178 179 191 179 173 174 182 182 175 173 170 169 167